| time (UTC) | temp F | wind direction | speed MPH | gust MPH | rain 1hr in | rain 24hr in | rain mn in | humidity % | barometer mb |
| 20260507014519 | 50 | 0 | 1.0 | 2.0 | 0.00 | 0.00 | 0.00 | 86 | 1013.2 |
| 20260507013530 | 50 | 0.0 | 0.0 | 0.00 | 0.00 | 0.00 | 86 | 1013.2 | |
| 20260507012519 | 50 | 0.0 | 1.0 | 0.00 | 0.00 | 0.00 | 86 | 1013.3 | |
| 20260507011550 | 50 | 0.0 | 0.0 | 0.00 | 0.00 | 0.00 | 85 | 1013.2 | |
| 20260507010530 | 51 | 0.0 | 1.0 | 0.00 | 0.00 | 0.00 | 85 | 1013.2 | |
| 20260507005550 | 51 | 338 | 2.0 | 4.0 | 0.00 | 0.00 | 0.00 | 85 | 1013.2 |
| 20260507004519 | 51 | 0 | 2.0 | 4.0 | 0.00 | 0.00 | 0.00 | 85 | 1013.2 |
| 20260507003519 | 51 | 23 | 2.0 | 3.0 | 0.00 | 0.00 | 0.00 | 85 | 1013.3 |
| 20260507002540 | 51 | 315 | 1.0 | 3.0 | 0.00 | 0.00 | 0.00 | 84 | 1013.2 |
| 20260507001519 | 51 | 23 | 3.0 | 9.0 | 0.00 | 0.00 | 0.00 | 84 | 1013.2 |
| 20260507000539 | 51 | 45 | 2.0 | 5.0 | 0.00 | 0.00 | 0.00 | 84 | 1013.2 |
| 20260506235520 | 51 | 45 | 3.0 | 6.0 | 0.00 | 0.00 | 0.00 | 84 | 1013.2 |
| 20260506234520 | 51 | 0 | 5.0 | 9.0 | 0.00 | 0.00 | 0.00 | 84 | 1013.0 |
| 20260506233520 | 51 | 23 | 4.0 | 8.0 | 0.00 | 0.00 | 0.00 | 84 | 1013.1 |
| 20260506232520 | 52 | 23 | 3.0 | 6.0 | 0.00 | 0.00 | 0.00 | 84 | 1013.0 |
| 20260506231550 | 52 | 45 | 2.0 | 4.0 | 0.00 | 0.00 | 0.00 | 84 | 1013.1 |
| 20260506230519 | 51 | 0 | 4.0 | 9.0 | 0.00 | 0.00 | 0.00 | 84 | 1013.0 |
| 20260506225520 | 51 | 338 | 3.0 | 8.0 | 0.00 | 0.00 | 0.00 | 84 | 1012.9 |
| 20260506224520 | 51 | 0 | 5.0 | 8.0 | 0.00 | 0.00 | 0.00 | 84 | 1013.0 |
| 20260506223519 | 51 | 23 | 3.0 | 5.0 | 0.00 | 0.00 | 0.00 | 84 | 1013.0 |
| 20260506222519 | 51 | 0 | 3.0 | 7.0 | 0.00 | 0.00 | 0.00 | 84 | 1012.8 |
| 20260506221530 | 51 | 0 | 3.0 | 6.0 | 0.00 | 0.00 | 0.00 | 85 | 1012.8 |
| 20260506220519 | 50 | 338 | 2.0 | 5.0 | 0.00 | 0.00 | 0.00 | 85 | 1012.8 |
| 20260506215519 | 50 | 23 | 3.0 | 6.0 | 0.00 | 0.00 | 0.00 | 85 | 1012.7 |
| 20260506214530 | 49 | 45 | 3.0 | 6.0 | 0.00 | 0.00 | 0.00 | 85 | 1012.7 |
| 20260506213530 | 49 | 338 | 1.0 | 2.0 | 0.00 | 0.00 | 0.00 | 85 | 1012.8 |
| 20260506212519 | 49 | 0 | 2.0 | 5.0 | 0.00 | 0.00 | 0.00 | 84 | 1012.7 |
| 20260506211551 | 49 | 23 | 2.0 | 4.0 | 0.00 | 0.00 | 0.00 | 84 | 1012.6 |
| 20260506210530 | 49 | 315 | 2.0 | 4.0 | 0.00 | 0.00 | 0.00 | 83 | 1012.7 |
| 20260506205520 | 49 | 0.0 | 3.0 | 0.00 | 0.00 | 0.00 | 83 | 1012.7 | |
| 20260506204519 | 49 | 315 | 1.0 | 3.0 | 0.00 | 0.00 | 0.00 | 83 | 1012.7 |
| 20260506203519 | 49 | 45 | 4.0 | 8.0 | 0.00 | 0.00 | 0.00 | 82 | 1012.7 |
| 20260506202519 | 49 | 23 | 3.0 | 8.0 | 0.00 | 0.00 | 0.00 | 82 | 1012.6 |
| 20260506201530 | 50 | 338 | 2.0 | 4.0 | 0.00 | 0.00 | 0.00 | 81 | 1012.6 |
| 20260506200520 | 50 | 0 | 3.0 | 5.0 | 0.00 | 0.00 | 0.00 | 80 | 1012.5 |
| 20260506195520 | 50 | 23 | 3.0 | 5.0 | 0.00 | 0.00 | 0.00 | 80 | 1012.4 |
| 20260506194519 | 51 | 23 | 4.0 | 7.0 | 0.00 | 0.00 | 0.00 | 79 | 1012.2 |
| 20260506193519 | 51 | 0 | 4.0 | 8.0 | 0.00 | 0.00 | 0.00 | 79 | 1012.2 |
| 20260506192551 | 51 | 23 | 5.0 | 6.0 | 0.00 | 0.00 | 0.00 | 79 | 1012.1 |
| 20260506191530 | 52 | 23 | 2.0 | 3.0 | 0.00 | 0.00 | 0.00 | 79 | 1012.1 |
| 20260506190600 | 52 | 23 | 6.0 | 9.0 | 0.00 | 0.00 | 0.00 | 78 | 1012.0 |
| 20260506185530 | 52 | 23 | 5.0 | 9.0 | 0.00 | 0.00 | 0.00 | 78 | 1011.9 |
| 20260506184530 | 53 | 315 | 6.0 | 11.0 | 0.00 | 0.00 | 0.00 | 77 | 1011.9 |
| 20260506183519 | 53 | 0 | 4.0 | 8.0 | 0.00 | 0.00 | 0.00 | 77 | 1011.8 |
| 20260506182519 | 53 | 315 | 4.0 | 6.0 | 0.00 | 0.00 | 0.00 | 77 | 1011.9 |
| 20260506181551 | 53 | 0 | 3.0 | 11.0 | 0.00 | 0.00 | 0.00 | 77 | 1011.7 |
| 20260506180519 | 54 | 315 | 4.0 | 7.0 | 0.00 | 0.00 | 0.00 | 76 | 1011.6 |
| 20260506175540 | 54 | 23 | 5.0 | 11.0 | 0.00 | 0.00 | 0.00 | 76 | 1011.5 |
| 20260506174530 | 54 | 23 | 4.0 | 9.0 | 0.00 | 0.00 | 0.00 | 75 | 1011.4 |
| 20260506173519 | 54 | 0 | 3.0 | 8.0 | 0.00 | 0.00 | 0.00 | 74 | 1011.2 |
| 20260506172540 | 55 | 23 | 6.0 | 11.0 | 0.00 | 0.00 | 0.00 | 74 | 1011.3 |
| 20260506171519 | 55 | 293 | 2.0 | 3.0 | 0.00 | 0.00 | 0.00 | 75 | 1011.2 |
| 20260506170519 | 55 | 0 | 3.0 | 8.0 | 0.00 | 0.00 | 0.00 | 75 | 1011.1 |
| 20260506165519 | 55 | 338 | 5.0 | 12.0 | 0.00 | 0.00 | 0.00 | 75 | 1010.9 |
| 20260506164550 | 55 | 23 | 4.0 | 8.0 | 0.00 | 0.00 | 0.00 | 74 | 1011.0 |
| 20260506163549 | 55 | 338 | 6.0 | 12.0 | 0.00 | 0.00 | 0.00 | 74 | 1010.8 |
| 20260506162519 | 56 | 23 | 3.0 | 5.0 | 0.00 | 0.00 | 0.00 | 74 | 1010.7 |
| 20260506161519 | 56 | 23 | 5.0 | 11.0 | 0.00 | 0.00 | 0.00 | 74 | 1010.6 |
| 20260506160519 | 56 | 0 | 3.0 | 8.0 | 0.00 | 0.00 | 0.00 | 74 | 1010.7 |
| 20260506155539 | 56 | 0 | 6.0 | 12.0 | 0.00 | 0.00 | 0.00 | 74 | 1010.7 |
| 20260506154519 | 57 | 113 | 3.0 | 8.0 | 0.00 | 0.00 | 0.00 | 73 | 1010.6 |
| 20260506153551 | 57 | 0 | 9.0 | 12.0 | 0.00 | 0.00 | 0.00 | 72 | 1010.6 |
| 20260506152529 | 57 | 0 | 7.0 | 11.0 | 0.00 | 0.00 | 0.00 | 71 | 1010.7 |
| 20260506151529 | 58 | 45 | 4.0 | 8.0 | 0.00 | 0.00 | 0.00 | 72 | 1010.6 |
| 20260506150518 | 58 | 0 | 5.0 | 12.0 | 0.00 | 0.00 | 0.00 | 72 | 1010.6 |
| 20260506145620 | 57 | 338 | 7.0 | 14.0 | 0.00 | 0.00 | 0.00 | 71 | 1010.6 |
| 20260506144530 | 57 | 0 | 4.0 | 9.0 | 0.00 | 0.00 | 0.00 | 71 | 1010.6 |
| 20260506143530 | 57 | 45 | 4.0 | 7.0 | 0.00 | 0.00 | 0.00 | 71 | 1010.6 |
| 20260506142559 | 57 | 23 | 11.0 | 16.0 | 0.00 | 0.00 | 0.00 | 70 | 1010.6 |
| 20260506141539 | 57 | 315 | 5.0 | 9.0 | 0.00 | 0.00 | 0.00 | 69 | 1010.6 |
| 20260506140529 | 57 | 23 | 6.0 | 11.0 | 0.00 | 0.00 | 0.00 | 68 | 1010.6 |
| 20260506135551 | 57 | 23 | 8.0 | 14.0 | 0.00 | 0.00 | 0.00 | 69 | 1010.6 |
| 20260506134551 | 57 | 0 | 6.0 | 11.0 | 0.00 | 0.00 | 0.00 | 70 | 1010.5 |
| 20260506133518 | 58 | 23 | 7.0 | 12.0 | 0.00 | 0.00 | 0.00 | 68 | 1010.4 |
| 20260506132519 | 59 | 338 | 7.0 | 16.0 | 0.00 | 0.00 | 0.00 | 66 | 1010.6 |
| 20260506131519 | 60 | 0 | 9.0 | 13.0 | 0.00 | 0.00 | 0.00 | 63 | 1010.5 |
| 20260506130519 | 60 | 0 | 5.0 | 11.0 | 0.00 | 0.00 | 0.00 | 64 | 1010.5 |
| 20260506125529 | 59 | 23 | 7.0 | 12.0 | 0.00 | 0.00 | 0.00 | 64 | 1010.5 |
| 20260506124539 | 59 | 0 | 5.0 | 11.0 | 0.00 | 0.00 | 0.00 | 67 | 1010.3 |
| 20260506123518 | 58 | 0 | 7.0 | 10.0 | 0.00 | 0.00 | 0.00 | 68 | 1010.3 |
| 20260506122518 | 59 | 0 | 9.0 | 16.0 | 0.00 | 0.00 | 0.00 | 67 | 1010.3 |
| 20260506121529 | 60 | 0 | 8.0 | 12.0 | 0.00 | 0.00 | 0.00 | 67 | 1010.1 |
| 20260506120529 | 58 | 45 | 6.0 | 10.0 | 0.00 | 0.00 | 0.00 | 69 | 1010.1 |
| 20260506115519 | 58 | 0 | 5.0 | 12.0 | 0.00 | 0.00 | 0.00 | 68 | 1010.1 |
| 20260506114529 | 59 | 45 | 8.0 | 17.0 | 0.00 | 0.00 | 0.00 | 65 | 1010.2 |
| 20260506113529 | 59 | 45 | 5.0 | 8.0 | 0.00 | 0.00 | 0.00 | 66 | 1010.2 |
| 20260506112539 | 59 | 23 | 10.0 | 14.0 | 0.00 | 0.00 | 0.00 | 65 | 1010.1 |
| 20260506111529 | 60 | 0 | 7.0 | 12.0 | 0.00 | 0.00 | 0.00 | 65 | 1010.1 |
| 20260506110538 | 58 | 23 | 6.0 | 14.0 | 0.00 | 0.00 | 0.00 | 66 | 1010.1 |
| 20260506105529 | 59 | 0 | 9.0 | 13.0 | 0.00 | 0.00 | 0.00 | 67 | 1010.1 |
| 20260506104540 | 59 | 0 | 7.0 | 16.0 | 0.00 | 0.00 | 0.00 | 66 | 1010.0 |
| 20260506103539 | 60 | 0 | 7.0 | 11.0 | 0.00 | 0.00 | 0.00 | 67 | 1010.1 |
| 20260506102518 | 59 | 0 | 6.0 | 10.0 | 0.00 | 0.00 | 0.00 | 65 | 1010.0 |
| 20260506101518 | 58 | 23 | 5.0 | 10.0 | 0.00 | 0.00 | 0.00 | 67 | 1010.2 |
| 20260506100519 | 59 | 45 | 6.0 | 13.0 | 0.00 | 0.00 | 0.00 | 67 | 1010.0 |
| 20260506095529 | 59 | 23 | 7.0 | 10.0 | 0.00 | 0.00 | 0.00 | 67 | 1009.8 |
| 20260506094519 | 58 | 0 | 8.0 | 14.0 | 0.00 | 0.00 | 0.00 | 68 | 1009.8 |
| 20260506093518 | 58 | 23 | 6.0 | 11.0 | 0.00 | 0.00 | 0.00 | 69 | 1009.8 |
| 20260506092549 | 57 | 0 | 7.0 | 15.0 | 0.00 | 0.00 | 0.00 | 67 | 1009.8 |
| 20260506091521 | 58 | 0 | 5.0 | 10.0 | 0.00 | 0.00 | 0.00 | 67 | 1009.9 |
| 20260506090520 | 57 | 23 | 7.0 | 14.0 | 0.00 | 0.00 | 0.00 | 69 | 1009.9 |
| 20260506085601 | 56 | 23 | 7.0 | 12.0 | 0.00 | 0.00 | 0.00 | 69 | 1009.9 |
| 20260506084518 | 57 | 23 | 7.0 | 12.0 | 0.00 | 0.00 | 0.00 | 68 | 1009.8 |
| 20260506083518 | 56 | 45 | 5.0 | 10.0 | 0.00 | 0.00 | 0.00 | 68 | 1009.7 |
| 20260506082531 | 56 | 0 | 5.0 | 8.0 | 0.00 | 0.00 | 0.00 | 70 | 1009.7 |
| 20260506081531 | 56 | 90 | 3.0 | 11.0 | 0.00 | 0.00 | 0.00 | 70 | 1009.5 |
| 20260506080518 | 56 | 23 | 10.0 | 16.0 | 0.00 | 0.00 | 0.00 | 69 | 1009.5 |
| 20260506072520 | 54 | 23 | 4.0 | 7.0 | 0.00 | 0.00 | 0.00 | 75 | 1009.3 |
| 20260506071531 | 53 | 23 | 9.0 | 15.0 | 0.00 | 0.00 | 0.00 | 76 | 1009.5 |
| 20260506070600 | 53 | 23 | 6.0 | 12.0 | 0.00 | 0.00 | 0.00 | 76 | 1009.4 |
| 20260506061520 | 52 | 338 | 2.0 | 6.0 | 0.00 | 0.00 | 0.00 | 79 | 1009.2 |
| 20260506060503 | 52 | 45 | 4.0 | 6.0 | 0.00 | 0.00 | 0.00 | 79 | 1009.3 |
| 20260506050718 | 52 | 0 | 6.0 | 8.0 | 0.00 | 0.00 | 0.00 | 79 | 1009.2 |
| 20260506044330 | 51 | 23 | 3.0 | 5.0 | 0.00 | 0.00 | 0.00 | 79 | 1009.3 |
| 20260506043339 | 51 | 45 | 3.0 | 8.0 | 0.00 | 0.00 | 0.00 | 79 | 1009.2 |
| 20260506042319 | 51 | 23 | 3.0 | 7.0 | 0.00 | 0.00 | 0.00 | 80 | 1009.2 |
| 20260506041340 | 51 | 23 | 6.0 | 10.0 | 0.00 | 0.00 | 0.00 | 79 | 1009.3 |
| 20260506040352 | 51 | 0 | 6.0 | 10.0 | 0.00 | 0.00 | 0.00 | 79 | 1009.3 |
| 20260506035340 | 51 | 315 | 5.0 | 11.0 | 0.00 | 0.00 | 0.00 | 80 | 1009.3 |
| 20260506034330 | 51 | 0 | 6.0 | 9.0 | 0.00 | 0.00 | 0.00 | 80 | 1009.4 |
| 20260506033320 | 51 | 0 | 5.0 | 11.0 | 0.00 | 0.00 | 0.00 | 80 | 1009.2 |
| 20260506032350 | 51 | 0 | 4.0 | 9.0 | 0.00 | 0.00 | 0.00 | 80 | 1009.3 |
| 20260506031320 | 51 | 23 | 7.0 | 15.0 | 0.00 | 0.00 | 0.00 | 79 | 1009.3 |
| 20260506030352 | 51 | 23 | 5.0 | 8.0 | 0.00 | 0.00 | 0.00 | 80 | 1009.3 |
| 20260506025330 | 51 | 23 | 4.0 | 6.0 | 0.00 | 0.00 | 0.00 | 80 | 1009.2 |
| 20260506024341 | 51 | 23 | 3.0 | 9.0 | 0.00 | 0.00 | 0.00 | 80 | 1009.1 |
| 20260506023330 | 51 | 45 | 4.0 | 10.0 | 0.00 | 0.00 | 0.00 | 79 | 1009.2 |
| 20260506022319 | 51 | 23 | 8.0 | 12.0 | 0.00 | 0.00 | 0.00 | 79 | 1009.3 |
| 20260506021319 | 51 | 45 | 5.0 | 9.0 | 0.00 | 0.00 | 0.00 | 80 | 1009.3 |
| 20260506020330 | 51 | 338 | 6.0 | 9.0 | 0.00 | 0.00 | 0.00 | 80 | 1009.3 |
| 20260506015330 | 51 | 0 | 8.0 | 14.0 | 0.00 | 0.00 | 0.00 | 80 | 1009.3 |